Tracking 27111 objects as of 29-Mar-2023
HD Live streaming from Space Station
objects crossing your sky now

SPHERE-1 EYE

Track SPHERE-1 EYE now!
10-day predictions


NORAD ID: 55072
Int'l Code: 2023-001BR
Perigee: 517.6 km
Apogee: 536.2 km
Inclination: 97.5 °
Period: 95.0 minutes
Semi major axis: 6897 km
RCS: Unknown
Launch date: January 3, 2023
Source: Japan (JPN)
Launch site: AIR FORCE EASTERN TEST RANGE (AFETR)
Your satellite tracking list
Your tracking list is empty




NASA's NSSDC Master Catalog

Two Line Element Set (TLE):
1 55072U 23001BR  23084.89044714  .00019309  00000-0  10218-2 0  9995
2 55072  97.4918 145.8164 0013443 300.2608 103.3146 15.15405214 12450
Source of the keplerian elements: AFSPC